Flag for U.S.A. Weather past 2 weeks in Lawrence, Kansas, U.S.A.

Now
34 °F

Overcast.


Feels Like: 28 °F
Forecast: 19 / 31 °F
Wind: 7 mph from Northwest

Location: Lawrence Municipal Airport

Current Time: Mar 1, 2015 at 3:37:54 PM

Latest Report: Mar 1, 2015 at 2:52 PM


Visibility: 10 mi

Pressure: 30.42 "Hg

Humidity: 61%

Dew point: 22 °F

Location of LawrenceLocation

Historic Weather in Lawrence — Graph

°F

Lawrence temperature yesterday

Maximum temperature yesterday: 23 °F (at 2:52 PM)
Minimum temperature yesterday: 13 °F (at 1:52 AM)
Average temperature yesterday: 19 °F

Past Weeks' High & Low Weather Summary

 TemperatureHumidityPressure
High54 °F (Feb 25, 2:52 PM)100% (Feb 21, 1:52 AM)30.83 "Hg (Feb 21, 1:52 AM)
Low0 °F (Feb 27, 3:52 AM)25% (Feb 14, 2:52 PM)29.72 "Hg (Feb 25, 3:52 PM)
Average21 °F65%30.32 "Hg
* Reported Feb 14 1:52 PM — Mar 1 1:52 PM, Lawrence, Weather by CustomWeather, © 2015

Note: Actual official high and low records may vary slightly from our data, if they occured in-between our weather recording intervals... More about our weather records

Advertising

Lawrence weather history for previous 24 hours

 ConditionsComfort  
Time TempWeatherWind HumidityBarometerVisibility
1:52 PM
Sun, Mar 1
32 °FOvercast.No wind61%30.42 "Hg10 mi
12:52 PM32 °FOvercast.6 mph66%30.44 "Hg10 mi
11:52 AM30 °FOvercast.6 mph69%30.45 "Hg10 mi
10:52 AM28 °FSunny.6 mph75%30.45 "Hg10 mi
9:52 AM25 °FOvercast.6 mph81%30.44 "Hg9 mi
8:52 AM23 °FOvercast.3 mph85%30.44 "Hg7 mi
7:52 AM21 °FIce fog.No wind92%30.42 "Hg4 mi
6:52 AM22 °FIce fog.No wind89%30.41 "Hg6 mi
5:52 AM21 °FIce fog.No wind92%30.40 "Hg6 mi
4:52 AM21 °FIce fog.No wind92%30.40 "Hg5 mi
3:52 AM22 °FOvercast.No wind89%30.40 "Hg7 mi
2:52 AM22 °FOvercast.3 mph89%30.40 "Hg7 mi
1:52 AM22 °FMostly cloudy.No wind89%30.40 "Hg7 mi
12:52 AM22 °FIce fog.No wind92%30.40 "Hg6 mi
11:52 PM
Sat, Feb 28
22 °FIce fog.No wind92%30.41 "Hg5 mi
10:52 PM22 °FLight snow. Ice fog.No wind89%30.41 "Hg4 mi
9:52 PM22 °FLight snow. Ice fog.3 mph89%30.43 "Hg5 mi
8:52 PM22 °FOvercast.5 mph89%30.42 "Hg10 mi
7:52 PM22 °FOvercast.6 mph85%30.42 "Hg9 mi
6:52 PM22 °FOvercast.5 mph85%30.43 "Hg9 mi
5:52 PM23 °FOvercast.6 mph81%30.41 "Hg7 mi
4:52 PM23 °FMostly cloudy.7 mph81%30.42 "Hg6 mi
4:04 PM23 °FOvercast.7 mph81%30.41 "Hg4 mi
Weather by CustomWeather, © 2015

See weather overviewHow to use our weather pages